Location: Long Barn
(38.0930°N, 120.1344°W)
Time: 17:52:30
(UTC+00:00)

Cosmos 1953 - Pass Details

Date: 05 August 2024
Orbit: 505 x 524 km, 82.5° (Epoch: 11 September)

Event Time Altitude Azimuth Distance (km) Brightness Sun altitude
Rises 12:12:28 0° 174° (S) 2,592 5.5 -10.5°
Reaches altitude 10° 12:14:37 10° 168° (SSE) 1,714 4.6 -10.1°
Maximum altitude 12:18:14 48° 94° (E) 669 3.2 -9.5°
Drops below altitude 10° 12:21:55 10° 19° (NNE) 1,738 5.6 -8.9°
Sets 12:24:06 0° 14° (NNE) 2,633 6.5 -8.5°
